KZ-1A R/B (44521 NORAD) Tracking and Keplerian Element Data

This shows tracking and keplerian element data for the satellite.

Feedback or suggestion? Click here.




ElementValue
Catalog44521
NameKZ-1A R/B
Epoch Orbit291
Epoch Day262.17704539
Epoch Year2019
RAAN268.5662
Inclination97.8042
Eccentricity0.0242599
Argument of Perigee337.1807
Mean Anonmoly21.8784
Mean Motion15.15616536
Decay Rate3.917E-05
L11 44521U 19058C 19262.17704539 .00003917 00000-0 98998-4 0 9992
L22 44521 97.8042 268.5662 0242599 337.1807 21.8784 15.15616536 2914

Live tracking and technical data element details for KZ-1A R/B (NORAD 44521). KZ-1A R/B can be tracked NOW for your location showing map with azimuth and elevation plus other details from your city location.

Track the satellite on the map from your city or location and see movement details for azimuth, elevation, latitude, longitude, range, height, and movement on the map or in text.







IsCatalogInMostPopularTable: catalog: 44521, numindb: 7
Update: records affected: 1



GetName: 44521 KZ-1A R/B

Hit Count: updated at: Thu, 19 Sep 2019 16:35:53 GMT